Location: Young's Pond
(41.2695°N, 72.7766°W)
Time: 06:46:49
(UTC-04:00)

Spot 4 - Visible Passes

Search period start: 23 May 2017 00:00
Search period end: 02 June 2017 00:00
Orbit: 705 x 723 km, 98.3° (Epoch: 22 May)

Date Brightness Start Highest point End Pass type
(mag) Time Alt. Az. Time Alt. Az. Time Alt. Az.
23 May 4.5 22:45:18 38° E 22:46:05 41° ENE 22:50:35 10° N visible
24 May 5.6 00:24:26 21° W 00:24:26 21° W 00:27:49 10° NW visible
24 May 5.9 21:53:05 11° E 21:55:02 14° ENE 21:57:29 10° NNE visible
24 May 3.8 23:32:13 68° WSW 23:32:23 69° WSW 23:37:12 10° NNW visible
25 May 4.6 22:40:00 33° E 22:40:58 37° ENE 22:45:22 10° N visible
26 May 5.5 00:19:08 23° W 00:19:08 23° W 00:22:52 10° NW visible
26 May 6.0 21:47:57 10° E 21:49:57 13° ENE 21:51:58 10° NE visible
26 May 3.7 23:26:55 73° SSW 23:27:14 78° WSW 23:32:05 10° NNW visible
27 May 4.8 22:34:42 29° E 22:35:52 33° ENE 22:40:09 10° N visible
28 May 5.3 00:13:50 26° W 00:13:50 26° W 00:17:53 10° NW visible
28 May 6.1 21:43:28 10° ENE 21:44:54 11° ENE 21:46:18 10° NE visible
28 May 3.7 23:21:37 73° S 23:22:06 87° WSW 23:26:57 10° NNW visible
29 May 5.0 22:29:25 25° E 22:30:45 29° ENE 22:34:55 10° N visible
30 May 5.1 00:08:32 30° W 00:08:39 30° W 00:12:53 10° NW visible
30 May 3.7 23:16:20 67° SSE 23:16:57 83° ENE 23:21:48 10° NNW visible
31 May 5.2 22:24:07 22° E 22:25:40 26° ENE 22:29:40 10° N visible
01 Jun 4.9 00:03:15 33° WSW 00:03:29 33° W 00:07:51 10° NNW visible
01 Jun 3.8 23:11:03 60° SE 23:11:50 74° ENE 23:16:40 10° N visible
